SL-16 DEB, 22619

Orbit data source: Space-Track

SL-16 DEB, 22619 is space debris in LEO originally from a launch on Fri, 26 Mar 1993 UTC launched from the Tyuratam Missile And Space Complex (TTMTR). Debris objects in space refer to the collection of defunct objects orbiting the Earth. Examples of debris include non-operational satellites, rocket bodies, and fragments generated from explosions, collisions, or faulty payload assembly.

Loading next visibility...
Identifier
22619, 1993-016AD
Orbit
LEO
Last TLE update
13 hours ago
Origin
Manufacturer
Unknown
Mission
Spacecraft
Bus & Motor
Unknown
Mass
Unknown
Launch date (UTC)
1993-03-26 (32 years ago)
Launch vehicle
Unknown
Launch site
Tyuratam Missile And Space Complex (TTMTR)
Object type
Payload
Rocket body
Debris
Shape & HBR
Unknown
Radar Cross Section
Medium (>0.1 m² and <1 m²)

Expand to show TLE details & history

TLE from 13 hours ago
0 SL-16 DEB
1 22619U 93016AD  25128.69383892  .00000023  00000-0  62243-4 0  9991
2 22619  71.0000 314.5217 0186144 357.8165  79.6926 13.73834990609542
Epoch: 2025-05-08T16:39Z
Definitive object data (Epoch: 2025-05-08T16:39:07.682Z)
Latitude
68.5362°
Longitude
-101.42346°
Altitude
975.105 km
Speed
7.382 km/s
True Right ascension
01h 00m 28s
True Declination
68° 25' 20"
Sunlit
Object was in daylight at TLE epoch
Visualization TLE readout
Latitude
-51.7041°
Longitude
171.18193°
Altitude
921.007 km
Speed
7.433 km/s
Apparent Right ascension
22h 51m 05s
Apparent Declination
-59° 21' 45"
Sunlit
Object is in full shadow
Visualization observer readout
Local Sidereal Time
14:08:18
Azimuth
139.142° SSE
Elevation
-53.798°
Doppler factor
1
Orbital elements
Apogee altitude
1,120.837 km
Perigee altitude
846.761 km
Semi-major axis
7,361.936 km
Eccentricity
0.0186144
Inclination
71°
RAAN
314.5217°
Arg. of periapsis
357.8165°
True anomaly
81.79953°
Mean anomaly
79.6926°
Eccentric anomaly
80.74524°
Mean motion
3.43602 °/min
BSTAR
0.000062243
Orbital period
104.77 mins
Loading maneuver chart data...
Loading SW <> Apogee altitude chart data...
Loading historical data...
Loading historical data...
Loading historical data...
Loading historical data...
Loading historical data...
Loading historical data...
Loading historical data...

SL-16 DEB Visibility forecast

Observer location: undefined°, undefined°

Span
Click to sort rows by Start time (UTC) header in descending order
Start Az.
Max El. time (UTC)
Max El. Az.
Max El.
End time (UTC)
End Az.
10 mins2025-05-09 13:21:32.957Z185.239° SSW2025-05-09 13:26:32.957Z95.757° ESE40.936°2025-05-09 13:31:32.957Z31.187° NE
6 mins2025-05-09 15:11:32.957Z276.761° WNW2025-05-09 15:13:32.957Z302.21° NW19.837°2025-05-09 15:17:32.957Z350.107° N
11 mins2025-05-09 22:32:32.957Z357.821° N2025-05-09 22:37:32.957Z67.117° ENE33.14°2025-05-09 22:43:32.957Z127.748° SE
11 mins2025-05-10 00:19:32.957Z314.553° NW2025-05-10 00:24:32.957Z252.665° W31.268°2025-05-10 00:30:32.957Z192.488° SSW
|